Pine Ridge, SD

3:16 AM MST on November 20, 2017 (GMT -0700)
Pine Ridge

Weather History for KIEN - November, 2012

Change the Weather History Date:

Thursday, November 8, 2012

  Actual Average Record
Temperature  
Mean Temperature 41 °F 38 °F  
Max Temperature 53 °F 52 °F 86 °F (1999)
Min Temperature 29 °F 23 °F 3 °F (2000)
Degree Days  
Heating Degree Days 24 27  
Month to date heating degree days 173 204  
Since 1 July heating degree days 920 959  
Cooling Degree Days 0 0  
Month to date cooling degree days 0 0  
Year to date cooling degree days 1103 717  
Moisture  
Dew Point 29 °F    
Average Humidity 65    
Maximum Humidity 92    
Minimum Humidity 38    
Precipitation  
Precipitation 0.00 in 0.03 in 0.00 in (2017)
Month to date precipitation T 0.21  
Year to date precipitation 10.23 16.81  
Sea Level Pressure  
Sea Level Pressure 29.95 in    
Wind  
Wind Speed 9 mph (NE)    
Max Wind Speed 25 mph    
Max Gust Speed 31 mph    
Visibility 9 miles    
Events      
T = Trace of Precipitation, MM = Missing Value Source: NWS Daily Summary

Daily Weather History Graph

Daily Weather History Graph

Search for Another Location

Airport or City:

Trip Planner

Search our weather history database for the weather conditions in past years. The results will help you decide how hot, cold, wet, or windy it might be!

Date:

Astronomy

Nov. 08, 2012 Rise Set
Actual Time 6:34 AM MST 4:32 PM MST
Civil Twilight 6:04 AM MST 5:02 PM MST
Nautical Twilight 5:30 AM MST 5:36 PM MST
Astronomical Twilight 4:56 AM MST 6:10 PM MST
Moon 12:22 AM MST (11/8) 1:22 PM MST (11/8)
Length of Visible Light 10h 58m
Length of Day
9h 58m
Waning Crescent, 32% of the Moon is Illuminated
Nov 8
Waning Crescent
Nov 13
New
Nov 20
First Quarter
Nov 28
Full
Dec 6
Last Quarter

Hourly Weather History & Observations

Time (MST) Temp. Windchill Dew Point Humidity Pressure Visibility Wind Dir Wind Speed Gust Speed Precip Events Conditions
12:52 AM 32.0 °F - 24.1 °F 73% 29.76 in 9.0 mi Calm Calm - N/A   Clear
1:52 AM 50.0 °F - 27.0 °F 41% 29.77 in 6.0 mi NW 24.2 mph 31.1 mph N/A   Haze
1:59 AM 50.0 °F - 28.4 °F 43% 29.84 in 4.0 mi NW 19.6 mph 31.1 mph N/A   Haze
2:52 AM 46.0 °F 42.5 °F 32.0 °F 58% 29.85 in 10.0 mi NNW 6.9 mph - N/A   Clear
3:52 AM 45.0 °F 40.1 °F 33.1 °F 63% 29.89 in 10.0 mi NNW 9.2 mph - N/A   Clear
4:52 AM 44.1 °F 39.0 °F 32.0 °F 63% 29.95 in 10.0 mi North 9.2 mph 17.3 mph N/A   Clear
5:52 AM 41.0 °F 38.0 °F 30.9 °F 67% 30.00 in 10.0 mi North 4.6 mph - N/A   Clear
6:52 AM 39.9 °F 35.8 °F 30.0 °F 68% 30.04 in 10.0 mi North 5.8 mph - N/A   Clear
7:52 AM 44.1 °F 40.1 °F 30.9 °F 60% 30.06 in 10.0 mi NNE 6.9 mph - N/A   Clear
8:52 AM 48.0 °F - 30.9 °F 52% 30.07 in 10.0 mi NNE 9.2 mph - N/A   Clear
9:52 AM 48.9 °F - 30.0 °F 48% 30.06 in 10.0 mi North 12.7 mph - N/A   Clear
10:52 AM 51.1 °F - 30.0 °F 44% 30.05 in 10.0 mi NNE 8.1 mph 16.1 mph N/A   Clear
11:52 AM 52.0 °F - 28.9 °F 41% 30.00 in 10.0 mi ENE 5.8 mph - N/A   Clear
12:52 PM 53.1 °F - 28.9 °F 40% 29.99 in 10.0 mi NE 10.4 mph - N/A   Clear
1:52 PM 53.1 °F - 30.0 °F 41% 29.92 in 10.0 mi ENE 10.4 mph - N/A   Clear
2:52 PM 52.0 °F - 30.0 °F 43% 29.91 in 10.0 mi ENE 12.7 mph - N/A   Clear
3:52 PM 48.9 °F - 30.9 °F 50% 29.92 in 10.0 mi ENE 11.5 mph - N/A   Clear
4:52 PM 43.0 °F 38.8 °F 30.0 °F 60% 29.95 in 10.0 mi ENE 6.9 mph - N/A   Clear
5:52 PM 36.0 °F 30.3 °F 28.0 °F 73% 29.96 in 10.0 mi East 6.9 mph - N/A   Clear
6:52 PM 33.1 °F - 28.0 °F 82% 29.98 in 10.0 mi Calm Calm - N/A   Clear
7:52 PM 33.1 °F 27.7 °F 28.0 °F 82% 29.97 in 10.0 mi ENE 5.8 mph - N/A   Clear
8:52 PM 30.0 °F 25.2 °F 27.0 °F 88% 29.97 in 10.0 mi ENE 4.6 mph - N/A   Clear
9:52 PM 30.9 °F 22.8 °F 28.0 °F 89% 29.96 in 8.0 mi ENE 9.2 mph - N/A   Overcast
10:31 PM 30.2 °F 20.8 °F 26.6 °F 86% 29.92 in 7.0 mi East 11.5 mph - N/A   Mostly Cloudy
10:42 PM 28.4 °F 18.5 °F 26.6 °F 93% 29.91 in 7.0 mi East 11.5 mph - N/A   Scattered Clouds
10:52 PM 30.0 °F 20.5 °F 27.0 °F 88% 29.95 in 7.0 mi East 11.5 mph - N/A   Mostly Cloudy
11:52 PM 32.0 °F 23.0 °F 30.0 °F 92% 29.92 in 6.0 mi East 11.5 mph - N/A   Overcast